This is the latest recevied weather packets stored in our database for station/object WE8L. If no packets are shown the sender has not sent any weather packets the latest 10 day(s).
| Time | Temp. | Humidity | Pressure | Rain* | Wind** | Luminosity | Snow |
|---|---|---|---|---|---|---|---|
| 1777738419 | 10.56° C | 44% | 1020.7 hPa | 0 mm | - | 547 W/m² | - |
| 1777738117 | 10.56° C | 42% | 1020.6 hPa | 0 mm | - | 348 W/m² | - |
| 1777737816 | 10.56° C | 45% | 1020.6 hPa | 0 mm | - | 154 W/m² | - |
| 1777737514 | 10.56° C | 44% | 1020.7 hPa | 0 mm | - | 111 W/m² | - |
| 1777737212 | 10.56° C | 45% | 1020.7 hPa | 0 mm | - | 117 W/m² | - |
| 1777736907 | 10.56° C | 46% | 1020.7 hPa | 0 mm | - | 312 W/m² | - |
| 1777736299 | 10° C | 47% | 1020.8 hPa | 0 mm | - | 107 W/m² | - |
| 1777735996 | 10° C | 48% | 1021 hPa | 0 mm | - | 98 W/m² | - |
| 1777735693 | 10° C | 49% | 1021 hPa | 0 mm | - | 46 W/m² | - |
| 1777735391 | 10° C | 49% | 1020.8 hPa | 0 mm | - | 41 W/m² | - |
| 1777735088 | 10° C | 50% | 1020.8 hPa | 0 mm | - | 40 W/m² | - |
| 1777734785 | 10° C | 51% | 1020.9 hPa | 0 mm | - | 51 W/m² | - |
| 1777734483 | 10° C | 50% | 1020.7 hPa | 0 mm | - | 68 W/m² | - |
| 1777734179 | 9.44° C | 47% | 1020.9 hPa | 0 mm | - | 65 W/m² | - |
| 1777733875 | 9.44° C | 47% | 1020.9 hPa | 0 mm | - | 270 W/m² | - |
| 1777733572 | 10° C | 48% | 1020.8 hPa | 0 mm | - | 556 W/m² | - |
| 1777733268 | 9.44° C | 52% | 1021.2 hPa | 0 mm | - | 544 W/m² | - |
| 1777732965 | 9.44° C | 49% | 1020.7 hPa | 0 mm | - | 529 W/m² | - |
| 1777732661 | 9.44° C | 53% | 1020.8 hPa | 0 mm | - | 443 W/m² | - |
| 1777732359 | 9.44° C | 49% | 1020.8 hPa | 0 mm | - | 300 W/m² | - |
| 1777732056 | 8.89° C | 52% | 1020.8 hPa | 0 mm | - | 110 W/m² | - |
| 1777731753 | 8.89° C | 54% | 1021 hPa | 0 mm | - | 279 W/m² | - |
| 1777731450 | 8.33° C | 55% | 1020.9 hPa | 0 mm | - | 108 W/m² | - |
| 1777731148 | 7.78° C | 53% | 1021 hPa | 0 mm | - | 327 W/m² | - |
| 1777730846 | 8.33° C | 55% | 1021.2 hPa | 0 mm | - | 238 W/m² | - |
* Rain latest hour (hover to see other rain measurements)
** Current wind speed in m/s (hover to see current wind gust speed)